Time,TemperatureF,DewpointF,PressureIn,WindDirection,WindDirectionDegrees,WindSpeedMPH,WindSpeedGustMPH,Humidity,HourlyPrecipIn,Conditions,Clouds,dailyrainin,SoftwareType,DateUTC
2013-02-10 00:00:00,9.0,4.0,30.22,NE,45,0.0,10.0,75,0.00,,,0.00,Rainwise IP-100,2013-02-10 05:00:00,
2013-02-10 00:05:00,9.0,4.0,30.22,NE,45,7.0,9.0,76,0.00,,,0.00,Rainwise IP-100,2013-02-10 05:05:00,
2013-02-10 00:10:00,9.0,4.0,30.22,NE,45,7.0,11.0,76,0.00,,,0.00,Rainwise IP-100,2013-02-10 05:10:00,
2013-02-10 00:15:00,9.0,4.0,30.22,ENE,67,7.0,10.0,76,0.00,,,0.00,Rainwise IP-100,2013-02-10 05:15:00,
2013-02-10 00:20:00,8.0,4.0,30.22,NE,45,6.0,9.0,76,0.00,,,0.00,Rainwise IP-100,2013-02-10 05:20:00,
2013-02-10 00:25:00,8.0,4.0,30.22,ENE,67,10.0,11.0,76,0.00,,,0.00,Rainwise IP-100,2013-02-10 05:25:00,
2013-02-10 00:30:00,8.0,4.0,30.22,ENE,67,6.0,12.0,76,0.00,,,0.00,Rainwise IP-100,2013-02-10 05:30:00,
2013-02-10 00:35:00,9.0,4.0,30.23,NE,45,0.0,10.0,76,0.00,,,0.00,Rainwise IP-100,2013-02-10 05:35:00,
2013-02-10 00:40:00,8.0,4.0,30.23,ENE,67,6.0,10.0,77,0.00,,,0.00,Rainwise IP-100,2013-02-10 05:40:00,
2013-02-10 00:45:00,8.0,4.0,30.23,ENE,67,6.0,11.0,76,0.00,,,0.00,Rainwise IP-100,2013-02-10 05:45:00,
2013-02-10 00:50:00,8.0,4.0,30.23,ENE,67,7.0,9.0,78,0.00,,,0.00,Rainwise IP-100,2013-02-10 05:50:00,
2013-02-10 00:55:00,8.0,4.0,30.22,ENE,67,8.0,9.0,78,0.00,,,0.00,Rainwise IP-100,2013-02-10 05:55:00,
2013-02-10 01:00:00,8.0,4.0,30.22,NE,45,8.0,9.0,78,0.00,,,0.00,Rainwise IP-100,2013-02-10 06:00:00,
2013-02-10 01:05:00,8.0,4.0,30.23,ENE,67,9.0,10.0,79,0.00,,,0.00,Rainwise IP-100,2013-02-10 06:05:00,
2013-02-10 01:10:00,8.0,4.0,30.23,NE,45,0.0,10.0,78,0.00,,,0.00,Rainwise IP-100,2013-02-10 06:10:00,
2013-02-10 01:15:00,8.0,4.0,30.23,NE,45,7.0,10.0,78,0.00,,,0.00,Rainwise IP-100,2013-02-10 06:15:00,
2013-02-10 01:20:00,8.0,4.0,30.23,NE,45,8.0,10.0,79,0.00,,,0.00,Rainwise IP-100,2013-02-10 06:20:00,
2013-02-10 01:25:00,8.0,4.0,30.23,NE,45,7.0,10.0,79,0.00,,,0.00,Rainwise IP-100,2013-02-10 06:25:00,
2013-02-10 01:30:00,7.0,4.0,30.23,NE,45,0.0,9.0,80,0.00,,,0.00,Rainwise IP-100,2013-02-10 06:30:00,
2013-02-10 01:35:00,7.0,4.0,30.23,NE,45,8.0,10.0,80,0.00,,,0.00,Rainwise IP-100,2013-02-10 06:35:00,
2013-02-10 01:40:00,8.0,4.0,30.23,NE,45,6.0,10.0,80,0.00,,,0.00,Rainwise IP-100,2013-02-10 06:40:00,
2013-02-10 01:45:00,7.0,4.0,30.23,NE,45,8.0,10.0,80,0.00,,,0.00,Rainwise IP-100,2013-02-10 06:45:00,
2013-02-10 01:50:00,8.0,4.0,30.24,NE,45,8.0,10.0,80,0.00,,,0.00,Rainwise IP-100,2013-02-10 06:50:00,
2013-02-10 01:55:00,7.0,4.0,30.24,NE,45,7.0,10.0,80,0.00,,,0.00,Rainwise IP-100,2013-02-10 06:55:00,
2013-02-10 02:00:00,7.0,4.0,30.24,NE,45,8.0,10.0,80,0.00,,,0.00,Rainwise IP-100,2013-02-10 07:00:00,
2013-02-10 02:05:00,7.0,4.0,30.24,NE,45,8.0,10.0,81,0.00,,,0.00,Rainwise IP-100,2013-02-10 07:05:00,
2013-02-10 02:10:00,7.0,4.0,30.24,NE,45,8.0,10.0,81,0.00,,,0.00,Rainwise IP-100,2013-02-10 07:10:00,
2013-02-10 02:15:00,7.0,4.0,30.24,NE,45,9.0,10.0,83,0.00,,,0.00,Rainwise IP-100,2013-02-10 07:15:00,
2013-02-10 02:20:00,7.0,4.0,30.24,NE,45,8.0,10.0,82,0.00,,,0.00,Rainwise IP-100,2013-02-10 07:20:00,
2013-02-10 02:25:00,7.0,4.0,30.24,NE,45,10.0,10.0,81,0.00,,,0.00,Rainwise IP-100,2013-02-10 07:25:00,
2013-02-10 02:30:00,7.0,4.0,30.24,NE,45,6.0,11.0,81,0.00,,,0.00,Rainwise IP-100,2013-02-10 07:30:00,
2013-02-10 02:35:00,6.0,4.0,30.24,ENE,67,8.0,10.0,82,0.00,,,0.00,Rainwise IP-100,2013-02-10 07:35:00,
2013-02-10 02:40:00,6.0,4.0,30.24,NE,45,7.0,11.0,83,0.00,,,0.00,Rainwise IP-100,2013-02-10 07:40:00,
2013-02-10 02:45:00,6.0,4.0,30.24,NNE,22,6.0,11.0,83,0.00,,,0.00,Rainwise IP-100,2013-02-10 07:45:00,
2013-02-10 02:50:00,6.0,4.0,30.24,NE,45,0.0,11.0,83,0.00,,,0.00,Rainwise IP-100,2013-02-10 07:50:00,
2013-02-10 02:55:00,7.0,4.0,30.24,ENE,67,7.0,7.0,82,0.00,,,0.00,Rainwise IP-100,2013-02-10 07:55:00,
2013-02-10 03:00:00,6.0,4.0,30.24,NE,45,7.0,8.0,83,0.00,,,0.00,Rainwise IP-100,2013-02-10 08:00:00,
2013-02-10 03:05:00,6.0,4.0,30.24,NE,45,6.0,10.0,83,0.00,,,0.00,Rainwise IP-100,2013-02-10 08:05:00,
2013-02-10 03:10:00,6.0,4.0,30.24,NE,45,5.0,9.0,83,0.00,,,0.00,Rainwise IP-100,2013-02-10 08:10:00,
2013-02-10 03:15:00,6.0,4.0,30.25,NE,45,8.0,10.0,83,0.00,,,0.00,Rainwise IP-100,2013-02-10 08:15:00,
2013-02-10 03:20:00,6.0,4.0,30.25,NE,45,7.0,9.0,83,0.00,,,0.00,Rainwise IP-100,2013-02-10 08:20:00,
2013-02-10 03:25:00,6.0,4.0,30.24,NE,45,8.0,10.0,83,0.00,,,0.00,Rainwise IP-100,2013-02-10 08:25:00,
2013-02-10 03:30:00,5.0,4.0,30.24,NE,45,8.0,10.0,86,0.00,,,0.00,Rainwise IP-100,2013-02-10 08:30:00,
2013-02-10 03:35:00,5.0,4.0,30.24,NE,45,8.0,10.0,86,0.00,,,0.00,Rainwise IP-100,2013-02-10 08:35:00,
2013-02-10 03:40:00,5.0,4.0,30.24,NE,45,7.0,10.0,86,0.00,,,0.00,Rainwise IP-100,2013-02-10 08:40:00,
2013-02-10 03:45:00,6.0,4.0,30.24,NE,45,6.0,11.0,84,0.00,,,0.00,Rainwise IP-100,2013-02-10 08:45:00,
2013-02-10 03:50:00,6.0,4.0,30.24,NE,45,8.0,10.0,83,0.00,,,0.00,Rainwise IP-100,2013-02-10 08:50:00,
2013-02-10 03:55:00,6.0,4.0,30.25,NE,45,6.0,10.0,83,0.00,,,0.00,Rainwise IP-100,2013-02-10 08:55:00,
2013-02-10 04:00:00,6.0,4.0,30.25,NE,45,5.0,8.0,83,0.00,,,0.00,Rainwise IP-100,2013-02-10 09:00:00,
2013-02-10 04:05:00,5.0,4.0,30.25,NE,45,1.0,8.0,86,0.00,,,0.00,Rainwise IP-100,2013-02-10 09:05:00,
2013-02-10 04:10:00,6.0,4.0,30.25,NE,45,6.0,9.0,84,0.00,,,0.00,Rainwise IP-100,2013-02-10 09:10:00,
2013-02-10 04:15:00,5.0,4.0,30.25,NE,45,7.0,9.0,86,0.00,,,0.00,Rainwise IP-100,2013-02-10 09:15:00,
2013-02-10 04:20:00,5.0,4.0,30.25,NE,45,8.0,11.0,86,0.00,,,0.00,Rainwise IP-100,2013-02-10 09:20:00,
2013-02-10 04:25:00,5.0,4.0,30.25,NE,45,9.0,12.0,86,0.00,,,0.00,Rainwise IP-100,2013-02-10 09:25:00,
2013-02-10 04:30:00,5.0,4.0,30.26,NE,45,8.0,11.0,86,0.00,,,0.00,Rainwise IP-100,2013-02-10 09:30:00,
2013-02-10 04:35:00,5.0,4.0,30.26,NE,45,8.0,10.0,86,0.00,,,0.00,Rainwise IP-100,2013-02-10 09:35:00,
2013-02-10 04:40:00,5.0,4.0,30.26,NE,45,6.0,10.0,86,0.00,,,0.00,Rainwise IP-100,2013-02-10 09:40:00,
2013-02-10 04:45:00,5.0,4.0,30.26,NE,45,6.0,10.0,86,0.00,,,0.00,Rainwise IP-100,2013-02-10 09:45:00,
2013-02-10 04:50:00,5.0,4.0,30.26,NE,45,5.0,10.0,86,0.00,,,0.00,Rainwise IP-100,2013-02-10 09:50:00,
2013-02-10 04:55:00,4.0,0.0,30.26,NE,45,8.0,11.0,87,0.00,,,0.00,Rainwise IP-100,2013-02-10 09:55:00,
2013-02-10 05:00:00,4.0,0.0,30.26,NE,45,8.0,10.0,88,0.00,,,0.00,Rainwise IP-100,2013-02-10 10:00:00,
2013-02-10 05:05:00,4.0,0.0,30.26,NE,45,6.0,10.0,88,0.00,,,0.00,Rainwise IP-100,2013-02-10 10:05:00,
2013-02-10 05:10:00,4.0,0.0,30.26,NE,45,6.0,8.0,88,0.00,,,0.00,Rainwise IP-100,2013-02-10 10:10:00,
2013-02-10 05:15:00,4.0,0.0,30.26,ENE,67,6.0,8.0,88,0.00,,,0.00,Rainwise IP-100,2013-02-10 10:15:00,
2013-02-10 05:20:00,4.0,0.0,30.26,NE,45,0.0,7.0,89,0.00,,,0.00,Rainwise IP-100,2013-02-10 10:20:00,
2013-02-10 05:25:00,3.0,0.0,30.27,NNE,22,0.0,5.0,89,0.00,,,0.00,Rainwise IP-100,2013-02-10 10:25:00,
2013-02-10 05:30:00,3.0,4.0,30.27,NNE,22,0.0,0.0,90,0.00,,,0.00,Rainwise IP-100,2013-02-10 10:30:00,
2013-02-10 05:35:00,3.0,4.0,30.28,NNW,337,0.0,0.0,90,0.00,,,0.00,Rainwise IP-100,2013-02-10 10:35:00,
2013-02-10 05:40:00,3.0,4.0,30.28,NNW,337,0.0,0.0,90,0.00,,,0.00,Rainwise IP-100,2013-02-10 10:40:00,
2013-02-10 05:45:00,3.0,4.0,30.28,NNW,337,0.0,0.0,92,0.00,,,0.00,Rainwise IP-100,2013-02-10 10:45:00,
2013-02-10 05:50:00,3.0,4.0,30.28,NNW,337,0.0,0.0,92,0.00,,,0.00,Rainwise IP-100,2013-02-10 10:50:00,
2013-02-10 05:55:00,3.0,4.0,30.29,NNW,337,0.0,0.0,92,0.00,,,0.00,Rainwise IP-100,2013-02-10 10:55:00,
2013-02-10 06:00:00,3.0,4.0,30.29,NW,315,0.0,0.0,92,0.00,,,0.00,Rainwise IP-100,2013-02-10 11:00:00,
2013-02-10 06:05:00,2.0,4.0,30.29,NW,315,0.0,0.0,91,0.00,,,0.00,Rainwise IP-100,2013-02-10 11:05:00,
2013-02-10 06:10:00,2.0,4.0,30.29,NW,315,0.0,0.0,91,0.00,,,0.00,Rainwise IP-100,2013-02-10 11:10:00,
2013-02-10 06:15:00,2.0,4.0,30.29,NW,315,0.0,0.0,93,0.00,,,0.00,Rainwise IP-100,2013-02-10 11:15:00,
2013-02-10 06:20:00,3.0,4.0,30.29,NW,315,0.0,0.0,92,0.00,,,0.00,Rainwise IP-100,2013-02-10 11:20:00,
2013-02-10 06:25:00,2.0,4.0,30.29,North,360,0.0,0.0,92,0.00,,,0.00,Rainwise IP-100,2013-02-10 11:25:00,
2013-02-10 06:30:00,3.0,4.0,30.30,NNE,22,0.0,0.0,93,0.00,,,0.00,Rainwise IP-100,2013-02-10 11:30:00,
2013-02-10 06:35:00,2.0,4.0,30.30,North,360,0.0,0.0,94,0.00,,,0.00,Rainwise IP-100,2013-02-10 11:35:00,
2013-02-10 06:40:00,2.0,4.0,30.31,North,360,0.0,0.0,94,0.00,,,0.00,Rainwise IP-100,2013-02-10 11:40:00,
2013-02-10 06:45:00,2.0,4.0,30.31,NNW,337,0.0,0.0,94,0.00,,,0.00,Rainwise IP-100,2013-02-10 11:45:00,
2013-02-10 06:50:00,2.0,4.0,30.31,West,270,0.0,0.0,100,0.00,,,0.00,Rainwise IP-100,2013-02-10 11:50:00,
2013-02-10 06:55:00,2.0,4.0,30.31,West,270,0.0,0.0,100,0.00,,,0.00,Rainwise IP-100,2013-02-10 11:55:00,
2013-02-10 07:00:00,2.0,4.0,30.32,West,270,0.0,0.0,100,0.00,,,0.00,Rainwise IP-100,2013-02-10 12:00:00,
2013-02-10 07:05:00,2.0,4.0,30.32,West,270,0.0,0.0,100,0.00,,,0.00,Rainwise IP-100,2013-02-10 12:05:00,
2013-02-10 07:10:00,2.0,4.0,30.33,West,270,0.0,0.0,100,0.00,,,0.00,Rainwise IP-100,2013-02-10 12:10:00,
2013-02-10 07:15:00,1.0,4.0,30.33,West,270,0.0,0.0,100,0.00,,,0.00,Rainwise IP-100,2013-02-10 12:15:00,
2013-02-10 07:20:00,1.0,4.0,30.33,West,270,0.0,0.0,100,0.00,,,0.00,Rainwise IP-100,2013-02-10 12:20:00,
2013-02-10 07:25:00,1.0,4.0,30.33,West,270,0.0,0.0,100,0.00,,,0.00,Rainwise IP-100,2013-02-10 12:25:00,
2013-02-10 07:30:00,2.0,4.0,30.33,NW,315,0.0,0.0,100,0.00,,,0.00,Rainwise IP-100,2013-02-10 12:30:00,
2013-02-10 07:35:00,3.0,4.0,30.33,North,360,0.0,0.0,100,0.00,,,0.00,Rainwise IP-100,2013-02-10 12:35:00,
2013-02-10 07:40:00,4.0,4.0,30.33,North,360,0.0,0.0,100,0.00,,,0.00,Rainwise IP-100,2013-02-10 12:40:00,
2013-02-10 07:45:00,5.0,8.0,30.33,North,360,0.0,0.0,100,0.00,,,0.00,Rainwise IP-100,2013-02-10 12:45:00,
2013-02-10 07:50:00,6.0,8.0,30.33,North,360,0.0,0.0,100,0.00,,,0.00,Rainwise IP-100,2013-02-10 12:50:00,
2013-02-10 07:55:00,8.0,8.0,30.33,North,360,0.0,0.0,100,0.00,,,0.00,Rainwise IP-100,2013-02-10 12:55:00,
2013-02-10 08:00:00,8.0,8.0,30.33,North,360,0.0,0.0,93,0.00,,,0.00,Rainwise IP-100,2013-02-10 13:00:00,
2013-02-10 08:05:00,10.0,8.0,30.34,North,360,0.0,0.0,92,0.00,,,0.00,Rainwise IP-100,2013-02-10 13:05:00,
2013-02-10 08:10:00,11.0,8.0,30.34,North,360,0.0,0.0,90,0.00,,,0.00,Rainwise IP-100,2013-02-10 13:10:00,
2013-02-10 08:15:00,11.0,8.0,30.33,North,360,0.0,0.0,88,0.00,,,0.00,Rainwise IP-100,2013-02-10 13:15:00,
2013-02-10 08:20:00,12.0,11.0,30.33,NE,45,0.0,0.0,87,0.00,,,0.00,Rainwise IP-100,2013-02-10 13:20:00,
2013-02-10 08:25:00,11.0,8.0,30.33,NE,45,0.0,0.0,87,0.00,,,0.00,Rainwise IP-100,2013-02-10 13:25:00,
2013-02-10 08:30:00,11.0,8.0,30.33,NE,45,0.0,1.0,86,0.00,,,0.00,Rainwise IP-100,2013-02-10 13:30:00,
2013-02-10 08:35:00,12.0,8.0,30.33,North,360,0.0,0.0,80,0.00,,,0.00,Rainwise IP-100,2013-02-10 13:35:00,
2013-02-10 08:40:00,13.0,8.0,30.33,NNE,22,0.0,4.0,75,0.00,,,0.00,Rainwise IP-100,2013-02-10 13:40:00,
2013-02-10 08:45:00,13.0,8.0,30.33,North,360,0.0,5.0,69,0.00,,,0.00,Rainwise IP-100,2013-02-10 13:45:00,
2013-02-10 08:50:00,14.0,8.0,30.33,NNE,22,0.0,3.0,69,0.00,,,0.00,Rainwise IP-100,2013-02-10 13:50:00,
2013-02-10 08:52:00,14.0,4.0,30.33,NNE,22,0.0,3.0,68,0.00,,,0.00,Rainwise IP-100,2013-02-10 13:52:00,
2013-02-10 08:57:00,14.0,4.0,30.33,North,360,0.0,5.0,63,0.00,,,0.00,Rainwise IP-100,2013-02-10 13:57:00,
2013-02-10 09:02:00,14.0,4.0,30.34,NNE,22,0.0,5.0,64,0.00,,,0.00,Rainwise IP-100,2013-02-10 14:02:00,
2013-02-10 09:07:00,14.0,4.0,30.34,NE,45,1.0,6.0,61,0.00,,,0.00,Rainwise IP-100,2013-02-10 14:07:00,
2013-02-10 09:12:00,14.0,4.0,30.34,North,360,3.0,7.0,60,0.00,,,0.00,Rainwise IP-100,2013-02-10 14:12:00,
2013-02-10 09:17:00,14.0,4.0,30.34,NE,45,0.0,7.0,60,0.00,,,0.00,Rainwise IP-100,2013-02-10 14:17:00,
2013-02-10 09:22:00,14.0,4.0,30.34,North,360,1.0,7.0,60,0.00,,,0.00,Rainwise IP-100,2013-02-10 14:22:00,
2013-02-10 09:27:00,15.0,4.0,30.35,NNE,22,1.0,6.0,58,0.00,,,0.00,Rainwise IP-100,2013-02-10 14:27:00,
2013-02-10 09:32:00,15.0,4.0,30.35,NNW,337,0.0,4.0,60,0.00,,,0.00,Rainwise IP-100,2013-02-10 14:32:00,
2013-02-10 09:37:00,16.0,4.0,30.35,NE,45,0.0,6.0,57,0.00,,,0.00,Rainwise IP-100,2013-02-10 14:37:00,
2013-02-10 09:42:00,16.0,4.0,30.35,NW,315,0.0,5.0,58,0.00,,,0.00,Rainwise IP-100,2013-02-10 14:42:00,
2013-02-10 09:47:00,15.0,4.0,30.35,NNW,337,0.0,1.0,59,0.00,,,0.00,Rainwise IP-100,2013-02-10 14:47:00,
2013-02-10 09:52:00,15.0,4.0,30.35,NW,315,0.0,0.0,60,0.00,,,0.00,Rainwise IP-100,2013-02-10 14:52:00,
2013-02-10 09:57:00,15.0,4.0,30.35,NW,315,0.0,0.0,60,0.00,,,0.00,Rainwise IP-100,2013-02-10 14:57:00,
2013-02-10 10:02:00,15.0,8.0,30.35,NW,315,0.0,0.0,62,0.00,,,0.00,Rainwise IP-100,2013-02-10 15:02:00,
2013-02-10 10:07:00,16.0,8.0,30.35,North,360,0.0,0.0,62,0.00,,,0.00,Rainwise IP-100,2013-02-10 15:07:00,
2013-02-10 10:12:00,17.0,8.0,30.35,NE,45,4.0,5.0,58,0.00,,,0.00,Rainwise IP-100,2013-02-10 15:12:00,
2013-02-10 10:17:00,17.0,8.0,30.34,North,360,0.0,5.0,57,0.00,,,0.00,Rainwise IP-100,2013-02-10 15:17:00,
2013-02-10 10:22:00,17.0,8.0,30.34,NNE,22,0.0,1.0,58,0.00,,,0.00,Rainwise IP-100,2013-02-10 15:22:00,
2013-02-10 10:27:00,18.0,8.0,30.34,WNW,292,0.0,8.0,59,0.00,,,0.00,Rainwise IP-100,2013-02-10 15:27:00,
2013-02-10 10:32:00,19.0,8.0,30.35,WNW,292,0.0,3.0,54,0.00,,,0.00,Rainwise IP-100,2013-02-10 15:32:00,
2013-02-10 10:37:00,19.0,8.0,30.35,NNW,337,0.0,5.0,54,0.00,,,0.00,Rainwise IP-100,2013-02-10 15:37:00,
2013-02-10 10:42:00,20.0,8.0,30.35,NNE,22,0.0,0.0,55,0.00,,,0.00,Rainwise IP-100,2013-02-10 15:42:00,
2013-02-10 10:47:00,20.0,8.0,30.35,NE,45,0.0,1.0,56,0.00,,,0.00,Rainwise IP-100,2013-02-10 15:47:00,
2013-02-10 10:52:00,20.0,8.0,30.34,NE,45,2.0,8.0,50,0.00,,,0.00,Rainwise IP-100,2013-02-10 15:52:00,
2013-02-10 10:57:00,19.0,8.0,30.34,NE,45,6.0,10.0,52,0.00,,,0.00,Rainwise IP-100,2013-02-10 15:57:00,
2013-02-10 11:02:00,19.0,8.0,30.34,NE,45,6.0,11.0,53,0.00,,,0.00,Rainwise IP-100,2013-02-10 16:02:00,
2013-02-10 11:07:00,19.0,8.0,30.34,NE,45,5.0,11.0,52,0.00,,,0.00,Rainwise IP-100,2013-02-10 16:07:00,
2013-02-10 11:12:00,19.0,8.0,30.34,North,360,7.0,11.0,52,0.00,,,0.00,Rainwise IP-100,2013-02-10 16:12:00,
2013-02-10 11:17:00,19.0,8.0,30.34,NE,45,1.0,9.0,52,0.00,,,0.00,Rainwise IP-100,2013-02-10 16:17:00,
2013-02-10 11:22:00,20.0,8.0,30.33,NNE,22,0.0,8.0,52,0.00,,,0.00,Rainwise IP-100,2013-02-10 16:22:00,
2013-02-10 11:27:00,21.0,4.0,30.33,ENE,67,0.0,6.0,48,0.00,,,0.00,Rainwise IP-100,2013-02-10 16:27:00,
2013-02-10 11:32:00,21.0,4.0,30.33,NNE,22,2.0,6.0,48,0.00,,,0.00,Rainwise IP-100,2013-02-10 16:32:00,
2013-02-10 11:37:00,22.0,8.0,30.33,NE,45,3.0,6.0,46,0.00,,,0.00,Rainwise IP-100,2013-02-10 16:37:00,
2013-02-10 11:42:00,22.0,8.0,30.31,ENE,67,0.0,7.0,46,0.00,,,0.00,Rainwise IP-100,2013-02-10 16:42:00,
2013-02-10 11:47:00,23.0,4.0,30.31,NE,45,3.0,6.0,42,0.00,,,0.00,Rainwise IP-100,2013-02-10 16:47:00,
2013-02-10 11:52:00,23.0,4.0,30.31,ENE,67,5.0,5.0,44,0.00,,,0.00,Rainwise IP-100,2013-02-10 16:52:00,
2013-02-10 11:57:00,24.0,4.0,30.30,NE,45,6.0,6.0,42,0.00,,,0.00,Rainwise IP-100,2013-02-10 16:57:00,
2013-02-10 12:02:00,24.0,4.0,30.30,North,360,0.0,8.0,40,0.00,,,0.00,Rainwise IP-100,2013-02-10 17:02:00,
2013-02-10 12:07:00,24.0,8.0,30.30,North,360,0.0,4.0,43,0.00,,,0.00,Rainwise IP-100,2013-02-10 17:07:00,
2013-02-10 12:12:00,24.0,4.0,30.30,NE,45,0.0,6.0,42,0.00,,,0.00,Rainwise IP-100,2013-02-10 17:12:00,
2013-02-10 12:17:00,26.0,4.0,30.29,NNE,22,3.0,6.0,38,0.00,,,0.00,Rainwise IP-100,2013-02-10 17:17:00,
2013-02-10 12:22:00,25.0,8.0,30.29,NE,45,0.0,6.0,40,0.00,,,0.00,Rainwise IP-100,2013-02-10 17:22:00,
2013-02-10 12:27:00,25.0,4.0,30.29,NNE,22,6.0,7.0,38,0.00,,,0.00,Rainwise IP-100,2013-02-10 17:27:00,
2013-02-10 12:32:00,26.0,4.0,30.29,NNW,337,0.0,7.0,37,0.00,,,0.00,Rainwise IP-100,2013-02-10 17:32:00,
2013-02-10 12:37:00,26.0,4.0,30.28,North,360,0.0,8.0,36,0.00,,,0.00,Rainwise IP-100,2013-02-10 17:37:00,
2013-02-10 12:42:00,26.0,4.0,30.28,North,360,5.0,8.0,34,0.00,,,0.00,Rainwise IP-100,2013-02-10 17:42:00,
2013-02-10 12:47:00,26.0,0.0,30.27,NNW,337,0.0,7.0,32,0.00,,,0.00,Rainwise IP-100,2013-02-10 17:47:00,
2013-02-10 12:52:00,27.0,4.0,30.26,NNE,22,4.0,8.0,34,0.00,,,0.00,Rainwise IP-100,2013-02-10 17:52:00,
2013-02-10 12:57:00,27.0,4.0,30.26,North,360,0.0,10.0,34,0.00,,,0.00,Rainwise IP-100,2013-02-10 17:57:00,
2013-02-10 13:02:00,28.0,4.0,30.26,NNE,22,2.0,7.0,33,0.00,,,0.00,Rainwise IP-100,2013-02-10 18:02:00,
2013-02-10 13:07:00,27.0,4.0,30.26,NNE,22,6.0,8.0,33,0.00,,,0.00,Rainwise IP-100,2013-02-10 18:07:00,
2013-02-10 13:12:00,27.0,4.0,30.26,North,360,0.0,8.0,33,0.00,,,0.00,Rainwise IP-100,2013-02-10 18:12:00,
2013-02-10 13:17:00,27.0,4.0,30.26,NE,45,0.0,4.0,33,0.00,,,0.00,Rainwise IP-100,2013-02-10 18:17:00,
2013-02-10 13:22:00,27.0,4.0,30.24,NE,45,0.0,10.0,32,0.00,,,0.00,Rainwise IP-100,2013-02-10 18:22:00,
2013-02-10 13:27:00,27.0,4.0,30.24,NE,45,2.0,9.0,33,0.00,,,0.00,Rainwise IP-100,2013-02-10 18:27:00,
2013-02-10 13:32:00,27.0,4.0,30.24,East,90,0.0,6.0,33,0.00,,,0.00,Rainwise IP-100,2013-02-10 18:32:00,
2013-02-10 13:37:00,28.0,4.0,30.24,North,360,2.0,5.0,33,0.00,,,0.00,Rainwise IP-100,2013-02-10 18:37:00,
2013-02-10 13:42:00,29.0,4.0,30.24,North,360,0.0,4.0,33,0.00,,,0.00,Rainwise IP-100,2013-02-10 18:42:00,
2013-02-10 13:47:00,30.0,8.0,30.24,North,360,0.0,4.0,33,0.00,,,0.00,Rainwise IP-100,2013-02-10 18:47:00,
2013-02-10 13:52:00,30.0,8.0,30.25,NE,45,0.0,2.0,37,0.00,,,0.00,Rainwise IP-100,2013-02-10 18:52:00,
2013-02-10 13:57:00,31.0,11.0,30.25,East,90,0.0,0.0,43,0.00,,,0.00,Rainwise IP-100,2013-02-10 18:57:00,
2013-02-10 14:02:00,32.0,8.0,30.24,NE,45,4.0,4.0,31,0.00,,,0.00,Rainwise IP-100,2013-02-10 19:02:00,
2013-02-10 14:07:00,32.0,11.0,30.23,ENE,67,0.0,5.0,40,0.00,,,0.00,Rainwise IP-100,2013-02-10 19:07:00,
2013-02-10 14:12:00,31.0,11.0,30.23,ENE,67,2.0,3.0,39,0.00,,,0.00,Rainwise IP-100,2013-02-10 19:12:00,
2013-02-10 14:17:00,31.0,8.0,30.23,ENE,67,2.0,5.0,36,0.00,,,0.00,Rainwise IP-100,2013-02-10 19:17:00,
2013-02-10 14:22:00,31.0,8.0,30.23,NNE,22,0.0,2.0,38,0.00,,,0.00,Rainwise IP-100,2013-02-10 19:22:00,
2013-02-10 14:27:00,32.0,11.0,30.24,ENE,67,0.0,1.0,38,0.00,,,0.00,Rainwise IP-100,2013-02-10 19:27:00,
2013-02-10 14:32:00,32.0,11.0,30.24,East,90,0.0,1.0,38,0.00,,,0.00,Rainwise IP-100,2013-02-10 19:32:00,
2013-02-10 14:37:00,32.0,11.0,30.24,ENE,67,0.0,3.0,38,0.00,,,0.00,Rainwise IP-100,2013-02-10 19:37:00,
2013-02-10 14:42:00,32.0,11.0,30.24,East,90,0.0,0.0,38,0.00,,,0.00,Rainwise IP-100,2013-02-10 19:42:00,
2013-02-10 14:47:00,32.0,8.0,30.26,ESE,112,0.0,0.0,36,0.00,,,0.00,Rainwise IP-100,2013-02-10 19:47:00,
2013-02-10 14:52:00,32.0,11.0,30.26,ESE,112,0.0,0.0,37,0.00,,,0.00,Rainwise IP-100,2013-02-10 19:52:00,
2013-02-10 14:57:00,33.0,11.0,30.25,ESE,112,0.0,0.0,36,0.00,,,0.00,Rainwise IP-100,2013-02-10 19:57:00,
2013-02-10 15:02:00,33.0,11.0,30.25,East,90,0.0,1.0,36,0.00,,,0.00,Rainwise IP-100,2013-02-10 20:02:00,
2013-02-10 15:07:00,34.0,8.0,30.25,East,90,4.0,5.0,28,0.00,,,0.00,Rainwise IP-100,2013-02-10 20:07:00,
2013-02-10 15:12:00,33.0,4.0,30.24,ESE,112,0.0,5.0,27,0.00,,,0.00,Rainwise IP-100,2013-02-10 20:12:00,
2013-02-10 15:17:00,32.0,4.0,30.24,East,90,0.0,4.0,30,0.00,,,0.00,Rainwise IP-100,2013-02-10 20:17:00,
2013-02-10 15:22:00,33.0,8.0,30.24,NE,45,0.0,2.0,31,0.00,,,0.00,Rainwise IP-100,2013-02-10 20:22:00,
2013-02-10 15:27:00,32.0,4.0,30.24,ESE,112,1.0,5.0,28,0.00,,,0.00,Rainwise IP-100,2013-02-10 20:27:00,
2013-02-10 15:32:00,32.0,4.0,30.23,NE,45,3.0,3.0,30,0.00,,,0.00,Rainwise IP-100,2013-02-10 20:32:00,
2013-02-10 15:37:00,31.0,4.0,30.23,ENE,67,0.0,5.0,30,0.00,,,0.00,Rainwise IP-100,2013-02-10 20:37:00,
2013-02-10 15:42:00,31.0,4.0,30.23,ENE,67,0.0,4.0,31,0.00,,,0.00,Rainwise IP-100,2013-02-10 20:42:00,
2013-02-10 15:47:00,30.0,4.0,30.23,East,90,0.0,4.0,30,0.00,,,0.00,Rainwise IP-100,2013-02-10 20:47:00,
2013-02-10 15:52:00,30.0,4.0,30.22,NE,45,3.0,3.0,30,0.00,,,0.00,Rainwise IP-100,2013-02-10 20:52:00,
2013-02-10 15:57:00,30.0,4.0,30.22,NE,45,0.0,5.0,32,0.00,,,0.00,Rainwise IP-100,2013-02-10 20:57:00,
2013-02-10 16:02:00,31.0,4.0,30.22,ENE,67,0.0,2.0,32,0.00,,,0.00,Rainwise IP-100,2013-02-10 21:02:00,
2013-02-10 16:07:00,31.0,8.0,30.22,ENE,67,0.0,0.0,34,0.00,,,0.00,Rainwise IP-100,2013-02-10 21:07:00,
2013-02-10 16:12:00,31.0,8.0,30.22,NE,45,0.0,0.0,34,0.00,,,0.00,Rainwise IP-100,2013-02-10 21:12:00,
2013-02-10 16:17:00,31.0,8.0,30.22,NE,45,0.0,0.0,34,0.00,,,0.00,Rainwise IP-100,2013-02-10 21:17:00,
2013-02-10 16:22:00,31.0,8.0,30.22,North,360,0.0,0.0,33,0.00,,,0.00,Rainwise IP-100,2013-02-10 21:22:00,
2013-02-10 16:27:00,32.0,8.0,30.22,North,360,0.0,0.0,33,0.00,,,0.00,Rainwise IP-100,2013-02-10 21:27:00,
2013-02-10 16:32:00,31.0,8.0,30.22,North,360,0.0,0.0,34,0.00,,,0.00,Rainwise IP-100,2013-02-10 21:32:00,
2013-02-10 16:37:00,30.0,8.0,30.22,North,360,0.0,0.0,33,0.00,,,0.00,Rainwise IP-100,2013-02-10 21:37:00,
2013-02-10 16:42:00,30.0,8.0,30.22,NW,315,0.0,0.0,33,0.00,,,0.00,Rainwise IP-100,2013-02-10 21:42:00,
2013-02-10 16:47:00,29.0,4.0,30.22,NW,315,0.0,0.0,33,0.00,,,0.00,Rainwise IP-100,2013-02-10 21:47:00,
2013-02-10 16:52:00,29.0,4.0,30.22,NW,315,0.0,0.0,33,0.00,,,0.00,Rainwise IP-100,2013-02-10 21:52:00,
2013-02-10 16:57:00,28.0,4.0,30.22,NW,315,0.0,0.0,35,0.00,,,0.00,Rainwise IP-100,2013-02-10 21:57:00,
2013-02-10 17:02:00,27.0,4.0,30.22,North,360,0.0,0.0,35,0.00,,,0.00,Rainwise IP-100,2013-02-10 22:02:00,
2013-02-10 17:07:00,27.0,4.0,30.21,North,360,0.0,0.0,35,0.00,,,0.00,Rainwise IP-100,2013-02-10 22:07:00,
2013-02-10 17:12:00,26.0,4.0,30.21,North,360,0.0,0.0,36,0.00,,,0.00,Rainwise IP-100,2013-02-10 22:12:00,
2013-02-10 17:17:00,25.0,4.0,30.22,North,360,0.0,0.0,36,0.00,,,0.00,Rainwise IP-100,2013-02-10 22:17:00,
2013-02-10 17:22:00,24.0,4.0,30.22,North,360,0.0,0.0,37,0.00,,,0.00,Rainwise IP-100,2013-02-10 22:22:00,
2013-02-10 17:27:00,24.0,4.0,30.23,North,360,0.0,0.0,37,0.00,,,0.00,Rainwise IP-100,2013-02-10 22:27:00,
2013-02-10 17:32:00,23.0,4.0,30.22,North,360,0.0,0.0,39,0.00,,,0.00,Rainwise IP-100,2013-02-10 22:32:00,
2013-02-10 17:37:00,22.0,4.0,30.22,NE,45,0.0,0.0,45,0.00,,,0.00,Rainwise IP-100,2013-02-10 22:37:00,
2013-02-10 17:42:00,22.0,4.0,30.22,NE,45,0.0,0.0,44,0.00,,,0.00,Rainwise IP-100,2013-02-10 22:42:00,
2013-02-10 17:47:00,21.0,4.0,30.22,NE,45,0.0,0.0,46,0.00,,,0.00,Rainwise IP-100,2013-02-10 22:47:00,
2013-02-10 17:52:00,21.0,4.0,30.23,NE,45,0.0,0.0,44,0.00,,,0.00,Rainwise IP-100,2013-02-10 22:52:00,
2013-02-10 17:57:00,21.0,4.0,30.23,NE,45,0.0,0.0,45,0.00,,,0.00,Rainwise IP-100,2013-02-10 22:57:00,
2013-02-10 18:02:00,20.0,4.0,30.23,NE,45,0.0,0.0,49,0.00,,,0.00,Rainwise IP-100,2013-02-10 23:02:00,
2013-02-10 18:07:00,20.0,8.0,30.23,NE,45,0.0,0.0,50,0.00,,,0.00,Rainwise IP-100,2013-02-10 23:07:00,
2013-02-10 18:12:00,20.0,4.0,30.22,NE,45,0.0,0.0,49,0.00,,,0.00,Rainwise IP-100,2013-02-10 23:12:00,
2013-02-10 18:17:00,19.0,8.0,30.22,NE,45,0.0,0.0,52,0.00,,,0.00,Rainwise IP-100,2013-02-10 23:17:00,
2013-02-10 18:22:00,19.0,4.0,30.23,SE,135,0.0,0.0,48,0.00,,,0.00,Rainwise IP-100,2013-02-10 23:22:00,
2013-02-10 18:27:00,19.0,8.0,30.23,SE,135,0.0,0.0,52,0.00,,,0.00,Rainwise IP-100,2013-02-10 23:27:00,
2013-02-10 18:32:00,19.0,8.0,30.23,SE,135,0.0,0.0,50,0.00,,,0.00,Rainwise IP-100,2013-02-10 23:32:00,
2013-02-10 18:37:00,19.0,8.0,30.23,SE,135,0.0,0.0,52,0.00,,,0.00,Rainwise IP-100,2013-02-10 23:37:00,
2013-02-10 18:42:00,19.0,8.0,30.22,SE,135,0.0,0.0,53,0.00,,,0.00,Rainwise IP-100,2013-02-10 23:42:00,
2013-02-10 18:47:00,19.0,8.0,30.22,SE,135,0.0,0.0,54,0.00,,,0.00,Rainwise IP-100,2013-02-10 23:47:00,
2013-02-10 18:52:00,18.0,8.0,30.22,SE,135,0.0,0.0,58,0.00,,,0.00,Rainwise IP-100,2013-02-10 23:52:00,
2013-02-10 18:57:00,18.0,8.0,30.22,SE,135,0.0,0.0,57,0.00,,,0.00,Rainwise IP-100,2013-02-10 23:57:00,
2013-02-10 19:02:00,18.0,8.0,30.22,SE,135,0.0,0.0,55,0.00,,,0.00,Rainwise IP-100,2013-02-11 00:02:00,
2013-02-10 19:07:00,18.0,8.0,30.22,SE,135,0.0,0.0,55,0.00,,,0.00,Rainwise IP-100,2013-02-11 00:07:00,
2013-02-10 19:12:00,18.0,4.0,30.22,SE,135,0.0,0.0,54,0.00,,,0.00,Rainwise IP-100,2013-02-11 00:12:00,
2013-02-10 19:17:00,18.0,4.0,30.22,SE,135,0.0,0.0,54,0.00,,,0.00,Rainwise IP-100,2013-02-11 00:17:00,
2013-02-10 19:22:00,18.0,4.0,30.22,SE,135,0.0,2.0,52,0.00,,,0.00,Rainwise IP-100,2013-02-11 00:22:00,
2013-02-10 19:27:00,19.0,8.0,30.21,SE,135,0.0,3.0,50,0.00,,,0.00,Rainwise IP-100,2013-02-11 00:27:00,
2013-02-10 19:32:00,19.0,8.0,30.21,SE,135,0.0,3.0,55,0.00,,,0.00,Rainwise IP-100,2013-02-11 00:32:00,
2013-02-10 19:37:00,18.0,8.0,30.21,SE,135,0.0,1.0,57,0.00,,,0.00,Rainwise IP-100,2013-02-11 00:37:00,
2013-02-10 19:42:00,17.0,8.0,30.21,SE,135,0.0,0.0,56,0.00,,,0.00,Rainwise IP-100,2013-02-11 00:42:00,
2013-02-10 19:47:00,17.0,4.0,30.20,SE,135,0.0,0.0,54,0.00,,,0.00,Rainwise IP-100,2013-02-11 00:47:00,
2013-02-10 19:52:00,17.0,4.0,30.21,SE,135,0.0,0.0,54,0.00,,,0.00,Rainwise IP-100,2013-02-11 00:52:00,
2013-02-10 19:57:00,17.0,4.0,30.21,SSE,157,0.0,0.0,54,0.00,,,0.00,Rainwise IP-100,2013-02-11 00:57:00,
2013-02-10 20:02:00,17.0,4.0,30.20,SE,135,0.0,2.0,53,0.00,,,0.00,Rainwise IP-100,2013-02-11 01:02:00,
2013-02-10 20:07:00,17.0,4.0,30.20,SE,135,2.0,4.0,54,0.00,,,0.00,Rainwise IP-100,2013-02-11 01:07:00,
2013-02-10 20:12:00,17.0,4.0,30.20,SE,135,0.0,6.0,54,0.00,,,0.00,Rainwise IP-100,2013-02-11 01:12:00,
2013-02-10 20:17:00,17.0,8.0,30.20,SE,135,0.0,2.0,55,0.00,,,0.00,Rainwise IP-100,2013-02-11 01:17:00,
2013-02-10 20:22:00,16.0,4.0,30.20,SE,135,0.0,3.0,57,0.00,,,0.00,Rainwise IP-100,2013-02-11 01:22:00,
2013-02-10 20:27:00,17.0,8.0,30.20,SE,135,0.0,5.0,56,0.00,,,0.00,Rainwise IP-100,2013-02-11 01:27:00,
2013-02-10 20:32:00,17.0,8.0,30.19,SE,135,1.0,5.0,56,0.00,,,0.00,Rainwise IP-100,2013-02-11 01:32:00,
2013-02-10 20:37:00,17.0,8.0,30.19,SE,135,0.0,4.0,55,0.00,,,0.00,Rainwise IP-100,2013-02-11 01:37:00,
2013-02-10 20:42:00,17.0,8.0,30.19,SE,135,0.0,1.0,55,0.00,,,0.00,Rainwise IP-100,2013-02-11 01:42:00,
2013-02-10 20:47:00,17.0,4.0,30.19,SE,135,4.0,6.0,54,0.00,,,0.00,Rainwise IP-100,2013-02-11 01:47:00,
2013-02-10 20:52:00,17.0,4.0,30.19,SE,135,0.0,5.0,54,0.00,,,0.00,Rainwise IP-100,2013-02-11 01:52:00,
2013-02-10 20:57:00,17.0,8.0,30.19,SE,135,0.0,1.0,55,0.00,,,0.00,Rainwise IP-100,2013-02-11 01:57:00,
2013-02-10 21:02:00,17.0,8.0,30.18,SSE,157,0.0,5.0,56,0.00,,,0.00,Rainwise IP-100,2013-02-11 02:02:00,
2013-02-10 21:07:00,18.0,8.0,30.18,SSE,157,0.0,0.0,55,0.00,,,0.00,Rainwise IP-100,2013-02-11 02:07:00,
2013-02-10 21:12:00,17.0,8.0,30.18,SSE,157,5.0,5.0,56,0.00,,,0.00,Rainwise IP-100,2013-02-11 02:12:00,
2013-02-10 21:17:00,18.0,8.0,30.17,South,180,0.0,5.0,56,0.00,,,0.00,Rainwise IP-100,2013-02-11 02:17:00,
2013-02-10 21:22:00,18.0,8.0,30.17,South,180,3.0,3.0,56,0.00,,,0.00,Rainwise IP-100,2013-02-11 02:22:00,
2013-02-10 21:27:00,18.0,8.0,30.17,South,180,0.0,3.0,56,0.00,,,0.00,Rainwise IP-100,2013-02-11 02:27:00,
2013-02-10 21:32:00,18.0,8.0,30.17,South,180,0.0,1.0,55,0.00,,,0.00,Rainwise IP-100,2013-02-11 02:32:00,
2013-02-10 21:37:00,18.0,8.0,30.16,South,180,0.0,3.0,55,0.00,,,0.00,Rainwise IP-100,2013-02-11 02:37:00,
2013-02-10 21:42:00,18.0,8.0,30.16,South,180,0.0,5.0,56,0.00,,,0.00,Rainwise IP-100,2013-02-11 02:42:00,
2013-02-10 21:47:00,19.0,8.0,30.16,South,180,2.0,5.0,56,0.00,,,0.00,Rainwise IP-100,2013-02-11 02:47:00,
2013-02-10 21:52:00,19.0,8.0,30.16,South,180,4.0,5.0,55,0.00,,,0.00,Rainwise IP-100,2013-02-11 02:52:00,
2013-02-10 21:57:00,20.0,8.0,30.16,South,180,0.0,8.0,53,0.00,,,0.00,Rainwise IP-100,2013-02-11 02:57:00,
2013-02-10 22:02:00,20.0,8.0,30.16,SSE,157,5.0,8.0,51,0.00,,,0.00,Rainwise IP-100,2013-02-11 03:02:00,
2013-02-10 22:07:00,21.0,8.0,30.16,SSE,157,0.0,6.0,51,0.00,,,0.00,Rainwise IP-100,2013-02-11 03:07:00,
2013-02-10 22:12:00,21.0,8.0,30.16,SSE,157,0.0,2.0,51,0.00,,,0.00,Rainwise IP-100,2013-02-11 03:12:00,
2013-02-10 22:17:00,20.0,8.0,30.16,South,180,0.0,5.0,51,0.00,,,0.00,Rainwise IP-100,2013-02-11 03:17:00,
2013-02-10 22:22:00,20.0,8.0,30.16,South,180,4.0,8.0,52,0.00,,,0.00,Rainwise IP-100,2013-02-11 03:22:00,
2013-02-10 22:27:00,20.0,8.0,30.16,South,180,2.0,10.0,53,0.00,,,0.00,Rainwise IP-100,2013-02-11 03:27:00,
2013-02-10 22:32:00,20.0,8.0,30.15,SSE,157,0.0,7.0,53,0.00,,,0.00,Rainwise IP-100,2013-02-11 03:32:00,
2013-02-10 22:37:00,20.0,8.0,30.15,SE,135,0.0,5.0,53,0.00,,,0.00,Rainwise IP-100,2013-02-11 03:37:00,
2013-02-10 22:42:00,21.0,8.0,30.15,SE,135,0.0,8.0,51,0.00,,,0.00,Rainwise IP-100,2013-02-11 03:42:00,
2013-02-10 22:47:00,21.0,8.0,30.15,South,180,5.0,7.0,53,0.00,,,0.00,Rainwise IP-100,2013-02-11 03:47:00,
2013-02-10 22:52:00,21.0,8.0,30.14,South,180,6.0,13.0,54,0.00,,,0.00,Rainwise IP-100,2013-02-11 03:52:00,
2013-02-10 22:57:00,22.0,8.0,30.14,SE,135,2.0,13.0,53,0.00,,,0.00,Rainwise IP-100,2013-02-11 03:57:00,
2013-02-10 23:02:00,22.0,8.0,30.13,SSE,157,1.0,9.0,51,0.00,,,0.00,Rainwise IP-100,2013-02-11 04:02:00,
2013-02-10 23:07:00,22.0,8.0,30.13,SSE,157,5.0,9.0,51,0.00,,,0.00,Rainwise IP-100,2013-02-11 04:07:00,
2013-02-10 23:12:00,23.0,8.0,30.12,SSE,157,3.0,6.0,48,0.00,,,0.00,Rainwise IP-100,2013-02-11 04:12:00,
2013-02-10 23:17:00,23.0,8.0,30.12,SSE,157,5.0,9.0,48,0.00,,,0.00,Rainwise IP-100,2013-02-11 04:17:00,
2013-02-10 23:22:00,23.0,8.0,30.12,South,180,0.0,5.0,48,0.00,,,0.00,Rainwise IP-100,2013-02-11 04:22:00,
2013-02-10 23:27:00,23.0,8.0,30.12,SSE,157,6.0,11.0,49,0.00,,,0.00,Rainwise IP-100,2013-02-11 04:27:00,
2013-02-10 23:32:00,23.0,8.0,30.12,SSE,157,2.0,11.0,50,0.00,,,0.00,Rainwise IP-100,2013-02-11 04:32:00,
2013-02-10 23:37:00,23.0,8.0,30.12,South,180,5.0,11.0,50,0.00,,,0.00,Rainwise IP-100,2013-02-11 04:37:00,
2013-02-10 23:42:00,23.0,8.0,30.12,SSE,157,6.0,12.0,50,0.00,,,0.00,Rainwise IP-100,2013-02-11 04:42:00,
2013-02-10 23:47:00,24.0,8.0,30.12,South,180,0.0,11.0,49,0.00,,,0.00,Rainwise IP-100,2013-02-11 04:47:00,
2013-02-10 23:52:00,24.0,8.0,30.12,SSE,157,5.0,12.0,49,0.00,,,0.00,Rainwise IP-100,2013-02-11 04:52:00,
2013-02-10 23:57:00,24.0,8.0,30.11,SSE,157,1.0,9.0,48,0.00,,,0.00,Rainwise IP-100,2013-02-11 04:57:00,